PROBA-1 1 26958U 01049B 26247.18287883 .00001611 00000+0 10662-3 0 9996 2 26958 97.9617 258.4999 0053646 214.6473 145.1255 15.07775343355523 CUTE-1 (CO-55) 1 27844U 03031E 26246.99468110 .00000148 00000+0 83107-4 0 9995 2 27844 98.6769 254.5740 0008790 322.8108 37.2461 14.24376276202893 CUBESAT XI-IV (CO-57) 1 27848U 03031J 26246.46060080 .00000125 00000+0 74090-4 0 9991 2 27848 98.6800 253.6960 0009110 344.5218 15.5681 14.23655534202515 APRIZESAT 4 1 35684U 09041D 26246.67784039 .00000390 00000+0 52993-4 0 9997 2 35684 98.1357 323.5425 0044429 67.7828 292.8090 14.83977860923003 APRIZESAT 3 1 35686U 09041F 26246.40492221 .00001141 00000+0 10272-3 0 9997 2 35686 98.2176 43.4376 0061524 167.4852 192.7913 14.96428917928070 PROBA-2 1 36037U 09059B 26246.98774630 .00000079 00000+0 28924-4 0 9990 2 36037 98.2482 69.2667 0014097 41.6135 318.6132 14.54890561892984 APRIZESAT 5 1 37792U 11044E 26247.04828152 .00000521 00000+0 72721-4 0 9999 2 37792 98.2466 182.3339 0053366 108.2092 252.4938 14.81192554810461 APRIZESAT 6 1 37793U 11044F 26246.72751345 .00000303 00000+0 50332-4 0 9995 2 37793 98.2289 158.8075 0042612 192.8530 197.3921 14.77011549808744 PROBA-V 1 39159U 13021A 26246.90789150 .00000035 00000+0 33228-4 0 9992 2 39159 98.3681 221.6617 0002927 261.5031 98.5817 14.23611258692319 APRIZESAT 7 1 39416U 13066A 26246.43809992 .00000758 00000+0 80240-4 0 9990 2 39416 97.7779 198.5669 0034617 313.8053 46.0304 14.91726636692895 APRIZESAT 8 1 39425U 13066K 26246.83413860 .00000658 00000+0 76820-4 0 9997 2 39425 97.8278 193.2301 0046580 28.7964 331.5808 14.87774690691360 BUGSAT-1 (TITA) 1 40014U 14033E 26247.17721581 .00002694 00000+0 14201-3 0 9994 2 40014 98.0417 344.3867 0026021 270.8154 89.0096 15.16285437667804 SAUDISAT 4 1 40016U 14033G 26246.36412500 .00000455 00000+0 66622-4 0 9992 2 40016 97.7697 29.8508 0044781 177.1506 182.9970 14.79626577657638 APRIZESAT 9 1 40018U 14033J 26246.59932742 .00000257 00000+0 45468-4 0 9999 2 40018 97.9167 17.9301 0064893 309.0125 50.5317 14.74296265655110 APRIZESAT 10 1 40019U 14033K 26247.17255359 .00000191 00000+0 37937-4 0 9996 2 40019 97.9745 12.4120 0079180 22.5578 337.9078 14.70959110653863 TECHDEMOSAT-1 (TDS-1) 1 40076U 14037H 26245.95773722 .00005034 00000+0 27931-3 0 9999 2 40076 98.3873 245.9648 0006490 20.8173 339.3319 15.14281049659999 TECHNOSAT 1 42829U 17042E 26246.42980847 .00002044 00000+0 14641-3 0 9999 2 42829 97.4394 41.1788 0017405 181.1713 178.9477 15.05350382498478 FLYING LAPTOP 1 42831U 17042G 26247.22986473 .00001358 00000+0 10914-3 0 9998 2 42831 97.4991 39.9118 0015801 214.7753 145.2440 15.01548133498310 HAWK-A 1 43765U 18099H 26247.08202593 .00004162 00000+0 16430-3 0 9991 2 43765 97.3840 298.3042 0034188 10.4096 349.7842 15.25549342425121 HAWK-B 1 43794U 18099AN 26247.06867100 .00003664 00000+0 15377-3 0 9997 2 43794 97.3886 297.5363 0032099 29.2315 331.0710 15.23640674425048 HAWK-C 1 43799U 18099AT 26247.13685096 .00005002 00000+0 17514-3 0 9995 2 43799 97.3814 299.6700 0039364 8.2664 351.9216 15.29213903425979 SALSAT 1 46495U 20068K 26246.48051839 .00004593 00000+0 15704-3 0 9992 2 46495 97.8890 254.3854 0010379 37.1076 323.0879 15.30786953327333 HAWK-2C 1 47502U 21006CT 26247.15584279 .00003596 00000+0 10640-3 0 9995 2 47502 97.2216 289.9089 0004828 279.3692 80.7007 15.35527607311617 HAWK-2A 1 47505U 21006CW 26247.15650115 .00003570 00000+0 10553-3 0 9996 2 47505 97.2258 290.6357 0004410 285.9318 74.1440 15.35569864311617 HAWK-2B 1 47508U 21006CZ 26247.08053903 .00004231 00000+0 12403-3 0 9994 2 47508 97.2130 288.7706 0004849 282.1477 77.9224 15.35718843311609 HAWK-3B 1 48931U 21059BE 26247.02276139 .00040776 00000+0 25907-3 0 9992 2 48931 97.6580 91.5758 0004340 45.7464 314.4156 15.76382118290241 HAWK-3C 1 48948U 21059BX 26247.02244370 .00042525 00000+0 27001-3 0 9993 2 48948 97.6688 97.3898 0004559 47.2707 312.8941 15.76386886290246 HAWK-3A 1 48957U 21059CG 26246.32404317 .00042432 00000+0 27015-3 0 9996 2 48957 97.6638 93.7614 0004698 49.7978 310.3697 15.76324625290130 HAWK-5C 1 52754U 22057Y 26246.99202552 .00014118 00000+0 22050-3 0 9999 2 52754 97.6676 51.9380 0004536 132.7013 227.4622 15.53921030238576 HAWK-5B 1 52756U 22057AA 26247.18503583 .00014421 00000+0 22508-3 0 9996 2 52756 97.6690 50.5073 0005378 127.6605 232.5136 15.53929857238609 HAWK-5A 1 52757U 22057AB 26247.18483279 .00014414 00000+0 22499-3 0 9997 2 52757 97.6686 51.3345 0005193 130.3942 229.7764 15.53928008238608 HAWK-6B 1 55324U 23011A 26247.12086727 .00002322 00000+0 10326-3 0 9993 2 55324 40.4976 251.4611 0003683 247.8506 112.1913 15.23525551199880 HAWK-6C 1 55326U 23011C 26247.05469475 .00002555 00000+0 11283-3 0 9993 2 55326 40.4961 248.6770 0003960 234.9267 125.1171 15.23522214199882 HAWK-6A 1 55327U 23011D 26247.05471479 .00002593 00000+0 11438-3 0 9995 2 55327 40.4974 250.3087 0003625 234.4919 125.5553 15.23525242199887 HAWK-7A 1 56191U 23054P 26246.25068675 .00003509 00000+0 13081-3 0 9997 2 56191 97.2569 131.5910 0004617 106.8394 253.3353 15.28076353188945 HAWK-7B 1 56193U 23054R 26247.10192672 .00003545 00000+0 13210-3 0 9993 2 56193 97.2593 130.7113 0003630 109.8424 250.3207 15.28080549189073 HAWK-7C 1 56200U 23054Y 26247.03631177 .00003493 00000+0 13021-3 0 9994 2 56200 97.2571 131.3919 0004028 102.7687 257.4003 15.28080252189066